Regional Weather Roundup
Issued by NWS Newport/Morehead, NC

Current Version | Previous Version | Graphics & Text | Print | Product List | Glossary On
Versions: 1 2 3 4 5 6 7 8 9 10 11 12 13 14 15 16 17 18 19 20 21 22 23 24 25 26 27 28 29 30 31 32 33 34 35 36 37 38 39 40 41 42 43 44 45 46 47 48 49 50
000 ASUS42 KMHX 030225 RWRMHX WEATHER ROUNDUP FOR EASTERN NORTH CAROLINA NATIONAL WEATHER SERVICE NEWPORT/MOREHEAD CITY NC 1000 PM EDT THU JUL 02 2015 NOTE: "FAIR" INDICATES FEW OR NO CLOUDS BELOW 12,000 FEET WITH NO SIGNIFICANT WEATHER AND/OR OBSTRUCTIONS TO VISIBILITY NCZ015>017-031-032-045>047-102-103-030300- NORTH COAST CITY SKY/WX TMP DP RH WIND PRES REMARKS EDENTON DRIZZLE 76 70 82 W5 29.90R ELIZABETH CITY LGT RAIN 74 69 85 CALM 29.87S KITTY HAWK HVY RAIN 73 70 92 N8 29.89R VSB 1/4 MANTEO HVY RAIN 73 72 98 N5 29.89R VSB 1 $$ NCZ045>047-081-094-103-104-030300- CENTRAL COAST CITY SKY/WX TMP DP RH WIND PRES REMARKS FRISCO CLEAR 79 75 87 SW18G28 29.89S SWANQUARTER N/A 82 N/A N/A SW17G32 29.85R $$ NCZ095-097-098-100-101-030300- SOUTHERN COAST CITY SKY/WX TMP DP RH WIND PRES REMARKS BEAUFORT MOCLDY 81 78 91 SW23G33 29.92R CEDAR ISLAND N/A 81 N/A N/A S13G28 29.94R JACKSONVILLE CLOUDY 81 72 74 SW10G20 29.91R PINEY ISLAND MOCLDY N/A N/A N/A SW17G26 29.91R WILMINGTON LGT RAIN 81 75 82 SW14G21 29.92S $$ NCZ011>013-027>030-043-044-078>080-089-090>093-098-030300- COASTAL PLAIN CITY SKY/WX TMP DP RH WIND PRES REMARKS AHOSKIE MOCLDY 71 67 90 CALM 29.89R CLINTON DRIZZLE 75 70 84 SW8 29.94R ELIZABETHTOWN CLOUDY 72 71 95 SW10 29.95S GOLDSBORO LGT RAIN 75 73 94 S3 29.90R GREENVILLE CLOUDY 73 72 94 CALM 29.93R HAVELOCK CLOUDY 82 75 79 SW22G36 29.91R KENANSVILLE CLOUDY 77 68 72 SW8 29.94R KINSTON CLOUDY 75 73 94 SW5 29.92R NEW BERN CLOUDY 80 73 79 SW13G22 29.91R RICHLANDS CLOUDY 79 70 73 SW9G17 29.93R ROCKY MOUNT MOCLDY 74 72 93 CALM 29.89R WASHINGTON LGT RAIN 72 71 96 CALM 29.92R WHITEVILLE LGT RAIN 73 69 90 SW10 29.97R $$ AMZ130-135-150-152-154-156-158-170-250-252-270-ANZ085-086-088-633-658-670-030300- MARINE OBSERVATIONS STATION/POSITION TIME TEMP WIND PRES WAVE SWELL AIR SEA DIR/SP/G HT/PER HT/PER (UTC) (F) (DEG/KT/KT) (MB) (FT/S) (FT/S) CHESAPEAKE LIGHT 0200 74 330/ 10/ 11 1011.3 64 E VA BEACH 0150 74 77 280/ 16/ 17 1011.1 6/ 6 3/ 8 DUCK 0200 71 60 40/ 10/ 10 1010.8 2 E DUCK 0111 68 N/A 2/ 8 OREGON INLET 0200 76 83 330/ 5/ 12 1011.7 13E OREGON INLT 0200 73 N/A 5/ 6 HATTERAS CG 0200 79 80 210/ 14/ 20 1011.9 DIAMOND BUOY 0150 83 83 220/ 27/ 33 1011.6 7/ 6 2/15 CAPE LOOKOUT 0200 81 220/ 18/ 23 1013.0 BEAUFORT LAB 0200 81 81 220/ 13/ 23 1012.4 30 SE NEW RVR IN 0108 81 80 230/ 19/ 27 1013.4 27 SE WRIGHTSVLE 0200 81 230/ 23/ 27 N/A 5 SE WRIGHTSVLE NOT AVBL 225 S CAPE HAT 0150 81 80 200/ 17/ 21 1018.1 6/ 7 3/ 7 41 SE CHARLESTON 0150 75 82 290/ 31/ 41 1015.4 7/ 5 2/ 9 $$

USA.gov is the U.S. government's official web portal to all federal, state and local government web resources and services.